Time,TemperatureF,DewpointF,PressureIn,WindDirection,WindDirectionDegrees,WindSpeedMPH,WindSpeedGustMPH,Humidity,HourlyPrecipIn,Conditions,Clouds,dailyrainin,SoftwareType,DateUTC
2013-11-26 00:00:00,61.2,57.6,25.07,SSW,204,0.0,2.7,88,0.00,,---,0.00,VWS V14.01,2013-11-26 06:00:00,
2013-11-26 00:01:00,61.2,57.6,25.07,SSW,204,0.0,2.2,88,0.00,,---,0.00,VWS V14.01,2013-11-26 06:01:00,
2013-11-26 00:02:00,61.2,57.6,25.07,SSW,204,0.0,0.0,88,0.00,,---,0.00,VWS V14.01,2013-11-26 06:02:00,
2013-11-26 00:03:00,61.2,57.6,25.07,SSW,204,0.0,0.0,88,0.00,,---,0.00,VWS V14.01,2013-11-26 06:03:00,
2013-11-26 00:04:00,61.2,57.6,25.07,SSW,204,0.0,0.0,88,0.00,,---,0.00,VWS V14.01,2013-11-26 06:04:00,
2013-11-26 00:05:00,61.2,57.6,25.07,SSW,203,0.0,0.0,88,0.00,,---,0.00,VWS V14.01,2013-11-26 06:05:00,
2013-11-26 00:06:00,61.2,57.6,25.07,SSW,203,0.0,0.0,88,0.00,,---,0.00,VWS V14.01,2013-11-26 06:06:00,
2013-11-26 00:07:00,61.2,57.6,25.07,SSW,203,0.0,0.0,88,0.00,,---,0.00,VWS V14.01,2013-11-26 06:07:00,
2013-11-26 00:08:00,61.2,57.6,25.07,SSW,203,0.0,0.0,88,0.00,,---,0.00,VWS V14.01,2013-11-26 06:08:00,
2013-11-26 00:09:00,61.2,57.6,25.07,SSW,203,3.1,3.1,88,0.00,,---,0.00,VWS V14.01,2013-11-26 06:09:00,
2013-11-26 00:10:00,61.2,57.6,25.07,SSW,203,0.0,3.1,88,0.00,,---,0.00,VWS V14.01,2013-11-26 06:10:00,
2013-11-26 00:11:00,61.2,57.6,25.07,SSW,203,0.0,0.0,88,0.00,,---,0.00,VWS V14.01,2013-11-26 06:11:00,
2013-11-26 00:12:00,61.2,57.6,25.07,SSW,203,4.0,4.0,88,0.00,,---,0.00,VWS V14.01,2013-11-26 06:12:00,
2013-11-26 00:13:00,61.2,57.6,25.07,SSW,203,4.0,4.0,88,0.00,,---,0.00,VWS V14.01,2013-11-26 06:13:00,
2013-11-26 00:14:00,61.2,57.6,25.07,SSW,204,0.0,4.0,88,0.00,,---,0.00,VWS V14.01,2013-11-26 06:14:00,
2013-11-26 00:15:00,61.2,57.6,25.07,SSW,204,0.0,0.0,88,0.00,,---,0.00,VWS V14.01,2013-11-26 06:15:00,
2013-11-26 00:16:00,61.2,57.6,25.07,SSW,204,0.0,0.0,88,0.00,,---,0.00,VWS V14.01,2013-11-26 06:16:00,
2013-11-26 00:17:00,61.2,57.6,25.07,SSW,204,0.0,0.0,88,0.00,,---,0.00,VWS V14.01,2013-11-26 06:17:00,
2013-11-26 00:18:00,61.2,57.6,25.07,SSW,203,0.0,0.0,88,0.00,,---,0.00,VWS V14.01,2013-11-26 06:18:00,
2013-11-26 00:19:00,61.0,57.4,25.07,SSW,204,2.2,2.2,88,0.00,,---,0.00,VWS V14.01,2013-11-26 06:19:00,
2013-11-26 00:20:00,61.0,57.4,25.07,SSW,204,2.2,2.2,88,0.00,,---,0.00,VWS V14.01,2013-11-26 06:20:00,
2013-11-26 00:21:00,61.0,57.4,25.07,SSW,203,0.0,2.2,88,0.00,,---,0.00,VWS V14.01,2013-11-26 06:21:00,
2013-11-26 00:22:00,61.0,57.4,25.07,SSW,203,0.0,0.0,88,0.00,,---,0.00,VWS V14.01,2013-11-26 06:22:00,
2013-11-26 00:23:00,61.0,57.4,25.07,SSW,203,0.0,0.0,88,0.00,,---,0.00,VWS V14.01,2013-11-26 06:23:00,
2013-11-26 00:24:00,61.0,57.4,25.07,SSW,203,0.0,0.0,88,0.00,,---,0.00,VWS V14.01,2013-11-26 06:24:00,
2013-11-26 00:25:00,61.0,57.4,25.07,SSW,203,2.2,2.2,88,0.00,,---,0.00,VWS V14.01,2013-11-26 06:25:00,
2013-11-26 00:26:00,61.0,57.4,25.07,SSW,203,0.0,2.2,88,0.00,,---,0.00,VWS V14.01,2013-11-26 06:26:00,
2013-11-26 00:27:00,61.0,57.4,25.07,SSW,203,0.0,0.0,88,0.00,,---,0.00,VWS V14.01,2013-11-26 06:27:00,
2013-11-26 00:28:00,61.0,57.4,25.07,SSW,203,2.7,2.7,88,0.00,,---,0.00,VWS V14.01,2013-11-26 06:28:00,
2013-11-26 00:29:00,61.0,57.4,25.07,SSW,203,2.7,2.7,88,0.00,,---,0.00,VWS V14.01,2013-11-26 06:29:00,
2013-11-26 00:30:00,61.0,57.4,25.07,SSW,204,0.0,2.7,88,0.00,,---,0.00,VWS V14.01,2013-11-26 06:30:00,
2013-11-26 00:31:00,61.0,57.4,25.07,SSW,204,0.0,0.0,88,0.00,,---,0.00,VWS V14.01,2013-11-26 06:31:00,
2013-11-26 00:32:00,61.0,57.4,25.07,SSW,204,0.0,0.0,88,0.00,,---,0.00,VWS V14.01,2013-11-26 06:32:00,
2013-11-26 00:33:00,61.0,57.4,25.07,SSW,204,0.0,0.0,88,0.00,,---,0.00,VWS V14.01,2013-11-26 06:33:00,
2013-11-26 00:34:00,61.0,57.4,25.07,SSW,203,0.0,0.0,88,0.00,,---,0.00,VWS V14.01,2013-11-26 06:34:00,
2013-11-26 00:35:00,61.0,57.4,25.07,SSW,203,0.0,0.0,88,0.00,,---,0.00,VWS V14.01,2013-11-26 06:35:00,
2013-11-26 00:36:00,60.8,57.2,25.07,SSW,203,0.0,0.0,88,0.00,,---,0.00,VWS V14.01,2013-11-26 06:36:00,
2013-11-26 00:37:00,60.8,57.2,25.07,SSW,204,0.0,0.0,88,0.00,,---,0.00,VWS V14.01,2013-11-26 06:37:00,
2013-11-26 00:38:00,60.8,57.2,25.07,SSW,203,0.0,0.0,88,0.00,,---,0.00,VWS V14.01,2013-11-26 06:38:00,
2013-11-26 00:39:00,60.8,57.2,25.07,SSW,204,0.0,0.0,88,0.00,,---,0.00,VWS V14.01,2013-11-26 06:39:00,
2013-11-26 00:40:00,60.8,57.2,25.07,SSW,203,2.2,2.2,88,0.00,,---,0.00,VWS V14.01,2013-11-26 06:40:00,
2013-11-26 00:41:00,60.8,57.2,25.07,SSW,204,0.0,2.2,88,0.00,,---,0.00,VWS V14.01,2013-11-26 06:41:00,
2013-11-26 00:42:00,61.0,57.4,25.07,SSW,204,0.0,0.0,88,0.00,,---,0.00,VWS V14.01,2013-11-26 06:42:00,
2013-11-26 00:43:00,61.0,57.4,25.07,SSW,204,0.0,0.0,88,0.00,,---,0.00,VWS V14.01,2013-11-26 06:43:00,
2013-11-26 00:44:00,61.2,57.6,25.07,SSW,204,0.0,0.0,88,0.00,,---,0.00,VWS V14.01,2013-11-26 06:44:00,
2013-11-26 00:45:00,61.2,57.6,25.07,SSW,204,0.0,0.0,88,0.00,,---,0.00,VWS V14.01,2013-11-26 06:45:00,
2013-11-26 00:46:00,61.2,57.6,25.07,SSW,204,0.0,0.0,88,0.00,,---,0.00,VWS V14.01,2013-11-26 06:46:00,
2013-11-26 00:47:00,61.2,57.6,25.07,SSW,204,0.0,0.0,88,0.00,,---,0.00,VWS V14.01,2013-11-26 06:47:00,
2013-11-26 00:48:00,61.2,57.6,25.07,SSW,204,0.0,0.0,88,0.00,,---,0.00,VWS V14.01,2013-11-26 06:48:00,
2013-11-26 00:49:00,61.2,57.6,25.07,SSW,204,0.0,0.0,88,0.00,,---,0.00,VWS V14.01,2013-11-26 06:49:00,
2013-11-26 00:50:00,61.3,58.1,25.07,SSW,204,0.0,0.0,89,0.00,,---,0.00,VWS V14.01,2013-11-26 06:50:00,
2013-11-26 00:51:00,61.3,58.1,25.07,SSW,204,0.0,0.0,89,0.00,,---,0.00,VWS V14.01,2013-11-26 06:51:00,
2013-11-26 00:52:00,61.3,58.1,25.07,SSW,204,0.0,0.0,89,0.00,,---,0.00,VWS V14.01,2013-11-26 06:52:00,
2013-11-26 00:53:00,61.3,58.1,25.07,SSW,204,0.0,0.0,89,0.00,,---,0.00,VWS V14.01,2013-11-26 06:53:00,
2013-11-26 00:54:00,61.3,58.1,25.07,SSW,204,0.0,0.0,89,0.00,,---,0.00,VWS V14.01,2013-11-26 06:54:00,
2013-11-26 00:55:00,61.3,58.1,25.07,SSW,204,0.0,0.0,89,0.00,,---,0.00,VWS V14.01,2013-11-26 06:55:00,
2013-11-26 00:56:00,61.3,58.1,25.07,SSW,204,0.0,0.0,89,0.00,,---,0.00,VWS V14.01,2013-11-26 06:56:00,
2013-11-26 00:57:00,61.3,58.1,25.07,SSW,204,0.0,0.0,89,0.00,,---,0.00,VWS V14.01,2013-11-26 06:57:00,
2013-11-26 00:58:00,61.3,58.1,25.07,SSW,204,0.0,0.0,89,0.00,,---,0.00,VWS V14.01,2013-11-26 06:58:00,
2013-11-26 00:59:00,61.3,58.1,25.07,SSW,204,0.0,0.0,89,0.00,,---,0.00,VWS V14.01,2013-11-26 06:59:00,
2013-11-26 01:00:00,61.3,58.1,25.07,SSW,204,0.0,0.0,89,0.00,,---,0.00,VWS V14.01,2013-11-26 07:00:00,
2013-11-26 01:01:00,61.3,58.1,25.07,SSW,204,0.0,0.0,89,0.00,,---,0.00,VWS V14.01,2013-11-26 07:01:00,
2013-11-26 01:02:00,61.3,58.1,25.07,SSW,204,0.0,0.0,89,0.00,,---,0.00,VWS V14.01,2013-11-26 07:02:00,
2013-11-26 01:03:00,61.3,58.1,25.07,SSW,204,0.0,0.0,89,0.00,,---,0.00,VWS V14.01,2013-11-26 07:03:00,
2013-11-26 01:04:00,61.3,58.1,25.07,SSW,204,0.0,0.0,89,0.00,,---,0.00,VWS V14.01,2013-11-26 07:04:00,
2013-11-26 01:05:00,61.3,58.1,25.07,SSW,204,0.0,0.0,89,0.00,,---,0.00,VWS V14.01,2013-11-26 07:05:00,
2013-11-26 01:06:00,61.3,58.1,25.07,SSW,204,0.0,0.0,89,0.00,,---,0.00,VWS V14.01,2013-11-26 07:06:00,
2013-11-26 01:07:00,61.3,58.1,25.07,SSW,204,0.0,0.0,89,0.00,,---,0.00,VWS V14.01,2013-11-26 07:07:00,
2013-11-26 01:08:00,61.3,58.1,25.07,SSW,204,0.0,0.0,89,0.00,,---,0.00,VWS V14.01,2013-11-26 07:08:00,
2013-11-26 01:09:00,61.3,58.1,25.07,SSW,204,0.0,0.0,89,0.00,,---,0.00,VWS V14.01,2013-11-26 07:09:00,
2013-11-26 01:10:00,61.3,58.1,25.07,SSW,204,0.0,0.0,89,0.00,,---,0.00,VWS V14.01,2013-11-26 07:10:00,
2013-11-26 01:11:00,61.3,58.1,25.07,SSW,204,0.0,0.0,89,0.00,,---,0.00,VWS V14.01,2013-11-26 07:11:00,
2013-11-26 01:12:00,61.3,58.1,25.07,SSW,204,0.0,0.0,89,0.00,,---,0.00,VWS V14.01,2013-11-26 07:12:00,
2013-11-26 01:13:00,61.3,58.1,25.07,SSW,204,0.0,0.0,89,0.00,,---,0.00,VWS V14.01,2013-11-26 07:13:00,
2013-11-26 01:14:00,61.3,58.1,25.07,SSW,204,0.0,2.2,89,0.00,,---,0.00,VWS V14.01,2013-11-26 07:14:00,
2013-11-26 01:15:00,61.3,58.1,25.07,SSW,204,0.0,0.0,89,0.00,,---,0.00,VWS V14.01,2013-11-26 07:15:00,
2013-11-26 01:16:00,61.3,58.1,25.07,SSW,204,0.0,0.0,89,0.00,,---,0.00,VWS V14.01,2013-11-26 07:16:00,
2013-11-26 01:17:00,61.3,58.1,25.07,SSW,204,0.0,0.0,89,0.00,,---,0.00,VWS V14.01,2013-11-26 07:17:00,
2013-11-26 01:18:00,61.3,58.1,25.07,SSW,204,0.0,0.0,89,0.00,,---,0.00,VWS V14.01,2013-11-26 07:18:00,
2013-11-26 01:19:00,61.3,58.1,25.07,SSW,204,0.0,0.0,89,0.00,,---,0.00,VWS V14.01,2013-11-26 07:19:00,
2013-11-26 01:20:00,61.3,58.1,25.07,SSW,204,0.0,0.0,89,0.00,,---,0.00,VWS V14.01,2013-11-26 07:20:00,
2013-11-26 01:21:00,61.0,57.4,25.07,SSW,204,0.0,0.0,88,0.00,,---,0.00,VWS V14.01,2013-11-26 07:21:00,
2013-11-26 01:22:00,61.0,57.4,25.07,SSW,204,0.0,0.0,88,0.00,,---,0.00,VWS V14.01,2013-11-26 07:22:00,
2013-11-26 01:23:00,61.0,57.4,25.07,SSW,204,0.0,0.0,88,0.00,,---,0.00,VWS V14.01,2013-11-26 07:23:00,
2013-11-26 01:24:00,61.0,57.4,25.07,SSW,204,0.0,0.0,88,0.00,,---,0.00,VWS V14.01,2013-11-26 07:24:00,
2013-11-26 01:25:00,61.0,57.4,25.07,SSW,204,0.0,0.0,88,0.00,,---,0.00,VWS V14.01,2013-11-26 07:25:00,
2013-11-26 01:26:00,61.0,57.4,25.07,SSW,204,0.0,0.0,88,0.00,,---,0.00,VWS V14.01,2013-11-26 07:26:00,
2013-11-26 01:27:00,61.0,57.4,25.07,SSW,204,0.0,0.0,88,0.00,,---,0.00,VWS V14.01,2013-11-26 07:27:00,
2013-11-26 01:28:00,61.0,57.4,25.07,SSW,204,2.2,2.2,88,0.00,,---,0.00,VWS V14.01,2013-11-26 07:28:00,
2013-11-26 01:29:00,60.8,57.2,25.07,SSW,204,0.0,2.2,88,0.00,,---,0.00,VWS V14.01,2013-11-26 07:29:00,
2013-11-26 01:30:00,60.8,57.2,25.07,SSW,204,0.0,0.0,88,0.00,,---,0.00,VWS V14.01,2013-11-26 07:30:00,
2013-11-26 01:31:00,60.8,57.2,25.07,SSW,203,0.0,0.0,88,0.00,,---,0.00,VWS V14.01,2013-11-26 07:31:00,
2013-11-26 01:32:00,60.8,57.2,25.07,SSW,203,0.0,0.0,88,0.00,,---,0.00,VWS V14.01,2013-11-26 07:32:00,
2013-11-26 01:33:00,60.8,57.2,25.07,SSW,203,0.0,0.0,88,0.00,,---,0.00,VWS V14.01,2013-11-26 07:33:00,
2013-11-26 01:34:00,60.8,57.2,25.07,SSW,203,0.0,0.0,88,0.00,,---,0.00,VWS V14.01,2013-11-26 07:34:00,
2013-11-26 01:35:00,60.6,57.0,25.07,SSW,203,0.0,0.0,88,0.00,,---,0.00,VWS V14.01,2013-11-26 07:35:00,
2013-11-26 01:36:00,60.6,57.0,25.07,SSW,203,0.0,0.0,88,0.00,,---,0.00,VWS V14.01,2013-11-26 07:36:00,
2013-11-26 01:37:00,60.6,57.0,25.07,SSW,203,0.0,0.0,88,0.00,,---,0.00,VWS V14.01,2013-11-26 07:37:00,
2013-11-26 01:38:00,60.6,57.0,25.07,SSW,203,0.0,0.0,88,0.00,,---,0.00,VWS V14.01,2013-11-26 07:38:00,
2013-11-26 01:39:00,60.6,57.0,25.07,SSW,203,2.7,2.7,88,0.00,,---,0.00,VWS V14.01,2013-11-26 07:39:00,
2013-11-26 01:40:00,60.6,57.0,25.07,SSW,203,0.0,0.0,88,0.00,,---,0.00,VWS V14.01,2013-11-26 07:40:00,
2013-11-26 01:41:00,60.6,57.0,25.07,SSW,203,0.0,0.0,88,0.00,,---,0.00,VWS V14.01,2013-11-26 07:41:00,
2013-11-26 01:42:00,60.6,57.0,25.07,SSW,203,0.0,0.0,88,0.00,,---,0.00,VWS V14.01,2013-11-26 07:42:00,
2013-11-26 01:43:00,60.6,57.0,25.07,SSW,203,0.0,0.0,88,0.00,,---,0.00,VWS V14.01,2013-11-26 07:43:00,
2013-11-26 01:44:00,60.6,57.0,25.07,SSW,203,0.0,0.0,88,0.00,,---,0.00,VWS V14.01,2013-11-26 07:44:00,
2013-11-26 01:45:00,60.6,56.7,25.07,SSW,203,0.0,0.0,87,0.00,,---,0.00,VWS V14.01,2013-11-26 07:45:00,
2013-11-26 01:46:00,60.6,56.7,25.07,SSW,203,0.0,0.0,87,0.00,,---,0.00,VWS V14.01,2013-11-26 07:46:00,
2013-11-26 01:47:00,60.6,56.7,25.07,SSE,154,0.0,2.7,87,0.00,,---,0.00,VWS V14.01,2013-11-26 07:47:00,
2013-11-26 01:48:00,60.6,56.7,25.07,SSE,154,0.0,0.0,87,0.00,,---,0.00,VWS V14.01,2013-11-26 07:48:00,
2013-11-26 01:49:00,60.6,56.7,25.07,SSE,154,0.0,0.0,87,0.00,,---,0.00,VWS V14.01,2013-11-26 07:49:00,
2013-11-26 01:50:00,60.6,56.4,25.07,SSW,204,2.7,2.7,86,0.00,,---,0.00,VWS V14.01,2013-11-26 07:50:00,
2013-11-26 01:51:00,60.6,56.4,25.04,SSW,204,2.7,2.7,86,0.00,,---,0.00,VWS V14.01,2013-11-26 07:51:00,
2013-11-26 01:52:00,60.6,56.4,25.04,SSW,204,0.0,2.7,86,0.00,,---,0.00,VWS V14.01,2013-11-26 07:52:00,
2013-11-26 01:53:00,60.4,55.9,25.04,SSE,152,2.7,2.7,85,0.00,,---,0.00,VWS V14.01,2013-11-26 07:53:00,
2013-11-26 01:54:00,60.4,55.9,25.04,SSE,152,2.7,2.7,85,0.00,,---,0.00,VWS V14.01,2013-11-26 07:54:00,
2013-11-26 01:55:00,60.4,55.9,25.04,SSE,153,2.2,2.7,85,0.00,,---,0.00,VWS V14.01,2013-11-26 07:55:00,
2013-11-26 01:56:00,60.4,55.9,25.04,SSE,153,2.2,2.2,85,0.00,,---,0.00,VWS V14.01,2013-11-26 07:56:00,
2013-11-26 01:57:00,60.4,55.9,25.04,SSE,153,0.0,2.2,85,0.00,,---,0.00,VWS V14.01,2013-11-26 07:57:00,
2013-11-26 01:58:00,60.4,55.9,25.04,SSE,153,0.0,0.0,85,0.00,,---,0.00,VWS V14.01,2013-11-26 07:58:00,
2013-11-26 01:59:00,60.3,55.4,25.04,SSE,153,2.2,2.2,84,0.00,,---,0.00,VWS V14.01,2013-11-26 07:59:00,
2013-11-26 02:00:00,60.3,55.4,25.04,SSW,208,0.0,2.2,84,0.00,,---,0.00,VWS V14.01,2013-11-26 08:00:00,
2013-11-26 02:01:00,60.1,55.2,25.04,SSW,208,2.2,2.2,84,0.00,,---,0.00,VWS V14.01,2013-11-26 08:01:00,
2013-11-26 02:02:00,60.1,55.2,25.04,SSW,208,2.2,2.2,84,0.00,,---,0.00,VWS V14.01,2013-11-26 08:02:00,
2013-11-26 02:03:00,60.1,55.2,25.04,SSW,208,0.0,2.2,84,0.00,,---,0.00,VWS V14.01,2013-11-26 08:03:00,
2013-11-26 02:04:00,60.1,55.2,25.04,SSW,208,0.0,0.0,84,0.00,,---,0.00,VWS V14.01,2013-11-26 08:04:00,
2013-11-26 02:05:00,60.1,55.2,25.04,SSW,206,2.7,2.7,84,0.00,,---,0.00,VWS V14.01,2013-11-26 08:05:00,
2013-11-26 02:06:00,60.1,55.2,25.04,SSW,206,3.1,3.1,84,0.00,,---,0.00,VWS V14.01,2013-11-26 08:06:00,
2013-11-26 02:07:00,60.1,55.2,25.04,SSW,206,0.0,3.1,84,0.00,,---,0.00,VWS V14.01,2013-11-26 08:07:00,
2013-11-26 02:08:00,60.1,55.2,25.04,SSW,206,0.0,0.0,84,0.00,,---,0.00,VWS V14.01,2013-11-26 08:08:00,
2013-11-26 02:09:00,60.1,55.2,25.04,SSW,206,2.7,2.7,84,0.00,,---,0.00,VWS V14.01,2013-11-26 08:09:00,
2013-11-26 02:10:00,60.1,55.2,25.04,SSW,206,2.7,2.7,84,0.00,,---,0.00,VWS V14.01,2013-11-26 08:10:00,
2013-11-26 02:11:00,59.7,54.9,25.04,SSW,206,0.0,0.0,84,0.00,,---,0.00,VWS V14.01,2013-11-26 08:11:00,
2013-11-26 02:12:00,59.7,54.9,25.04,SSW,206,0.0,0.0,84,0.00,,---,0.00,VWS V14.01,2013-11-26 08:12:00,
2013-11-26 02:13:00,59.7,54.9,25.04,SSW,206,0.0,0.0,84,0.00,,---,0.00,VWS V14.01,2013-11-26 08:13:00,
2013-11-26 02:14:00,59.7,54.9,25.04,SSW,206,2.2,2.2,84,0.00,,---,0.00,VWS V14.01,2013-11-26 08:14:00,
2013-11-26 02:15:00,59.7,54.9,25.04,SSW,206,2.2,2.2,84,0.00,,---,0.00,VWS V14.01,2013-11-26 08:15:00,
2013-11-26 02:16:00,59.7,54.9,25.04,SSW,206,0.0,0.0,84,0.00,,---,0.00,VWS V14.01,2013-11-26 08:16:00,
2013-11-26 02:17:00,59.7,54.9,25.04,SSW,206,0.0,0.0,84,0.00,,---,0.00,VWS V14.01,2013-11-26 08:17:00,
2013-11-26 02:18:00,59.7,54.9,25.04,SSW,206,0.0,0.0,84,0.00,,---,0.00,VWS V14.01,2013-11-26 08:18:00,
2013-11-26 02:19:00,59.7,54.9,25.04,SSW,206,0.0,0.0,84,0.00,,---,0.00,VWS V14.01,2013-11-26 08:19:00,
2013-11-26 02:20:00,59.5,54.7,25.04,SSW,206,0.0,0.0,84,0.00,,---,0.00,VWS V14.01,2013-11-26 08:20:00,
2013-11-26 02:21:00,59.5,54.7,25.04,SSW,206,0.0,0.0,84,0.00,,---,0.00,VWS V14.01,2013-11-26 08:21:00,
2013-11-26 02:22:00,59.5,54.7,25.04,SSW,206,0.0,0.0,84,0.00,,---,0.00,VWS V14.01,2013-11-26 08:22:00,
2013-11-26 02:23:00,59.4,54.5,25.04,SSW,206,0.0,0.0,84,0.00,,---,0.00,VWS V14.01,2013-11-26 08:23:00,
2013-11-26 02:24:00,59.4,54.5,25.04,SSW,206,2.7,2.7,84,0.00,,---,0.00,VWS V14.01,2013-11-26 08:24:00,
2013-11-26 02:25:00,59.4,54.5,25.04,SSW,206,0.0,2.7,84,0.00,,---,0.00,VWS V14.01,2013-11-26 08:25:00,
2013-11-26 02:26:00,59.4,54.5,25.04,SSW,206,2.2,2.2,84,0.00,,---,0.00,VWS V14.01,2013-11-26 08:26:00,
2013-11-26 02:27:00,59.4,54.5,25.04,SSW,206,0.0,2.2,84,0.00,,---,0.00,VWS V14.01,2013-11-26 08:27:00,
2013-11-26 02:28:00,59.4,54.5,25.04,SSW,206,0.0,0.0,84,0.00,,---,0.00,VWS V14.01,2013-11-26 08:28:00,
2013-11-26 02:29:00,59.4,54.5,25.04,SSW,206,0.0,0.0,84,0.00,,---,0.00,VWS V14.01,2013-11-26 08:29:00,
2013-11-26 02:30:00,59.4,54.5,25.04,SSW,206,2.7,2.7,84,0.00,,---,0.00,VWS V14.01,2013-11-26 08:30:00,
2013-11-26 02:31:00,59.4,54.5,25.04,SSW,206,2.7,2.7,84,0.00,,---,0.00,VWS V14.01,2013-11-26 08:31:00,
2013-11-26 02:32:00,59.4,54.5,25.04,SSW,206,0.0,2.7,84,0.00,,---,0.00,VWS V14.01,2013-11-26 08:32:00,
2013-11-26 02:33:00,59.4,54.5,25.04,SSW,206,0.0,0.0,84,0.00,,---,0.00,VWS V14.01,2013-11-26 08:33:00,
2013-11-26 02:34:00,59.4,54.5,25.04,SSW,206,0.0,0.0,84,0.00,,---,0.00,VWS V14.01,2013-11-26 08:34:00,
2013-11-26 02:35:00,59.4,54.5,25.04,SSW,206,0.0,0.0,84,0.00,,---,0.00,VWS V14.01,2013-11-26 08:35:00,
2013-11-26 02:36:00,59.4,54.5,25.04,SSW,206,0.0,0.0,84,0.00,,---,0.00,VWS V14.01,2013-11-26 08:36:00,
2013-11-26 02:37:00,59.4,54.9,25.04,SSW,206,0.0,0.0,85,0.00,,---,0.00,VWS V14.01,2013-11-26 08:37:00,
2013-11-26 02:38:00,59.4,54.9,25.04,SSW,206,0.0,0.0,85,0.00,,---,0.00,VWS V14.01,2013-11-26 08:38:00,
2013-11-26 02:39:00,59.4,54.9,25.04,SSW,206,3.1,3.1,85,0.00,,---,0.00,VWS V14.01,2013-11-26 08:39:00,
2013-11-26 02:40:00,59.4,54.9,25.04,SSW,206,0.0,3.1,85,0.00,,---,0.00,VWS V14.01,2013-11-26 08:40:00,
2013-11-26 02:41:00,59.4,54.9,25.04,SSW,206,0.0,0.0,85,0.00,,---,0.00,VWS V14.01,2013-11-26 08:41:00,
2013-11-26 02:42:00,59.4,54.9,25.04,SSW,206,0.0,0.0,85,0.00,,---,0.00,VWS V14.01,2013-11-26 08:42:00,
2013-11-26 02:43:00,59.4,54.9,25.04,SSW,206,0.0,0.0,85,0.00,,---,0.00,VWS V14.01,2013-11-26 08:43:00,
2013-11-26 02:44:00,59.4,54.9,25.04,SSW,206,0.0,0.0,85,0.00,,---,0.00,VWS V14.01,2013-11-26 08:44:00,
2013-11-26 02:45:00,59.4,54.9,25.04,SSW,206,0.0,0.0,85,0.00,,---,0.00,VWS V14.01,2013-11-26 08:45:00,
2013-11-26 02:46:00,59.4,54.9,25.04,SSW,206,0.0,0.0,85,0.00,,---,0.00,VWS V14.01,2013-11-26 08:46:00,
2013-11-26 02:47:00,59.4,54.9,25.04,SSW,206,0.0,0.0,85,0.00,,---,0.00,VWS V14.01,2013-11-26 08:47:00,
2013-11-26 02:48:00,59.4,54.9,25.04,SSW,206,0.0,0.0,85,0.00,,---,0.00,VWS V14.01,2013-11-26 08:48:00,
2013-11-26 02:49:00,59.4,54.9,25.04,SSW,206,0.0,0.0,85,0.00,,---,0.00,VWS V14.01,2013-11-26 08:49:00,
2013-11-26 02:50:00,59.4,54.9,25.04,SSW,206,0.0,0.0,85,0.00,,---,0.00,VWS V14.01,2013-11-26 08:50:00,
2013-11-26 02:51:00,59.4,54.9,25.04,SSW,206,2.7,2.7,85,0.00,,---,0.00,VWS V14.01,2013-11-26 08:51:00,
2013-11-26 02:52:00,59.4,54.9,25.04,SSW,206,0.0,0.0,85,0.00,,---,0.00,VWS V14.01,2013-11-26 08:52:00,
2013-11-26 02:53:00,59.4,54.9,25.04,SSW,206,0.0,0.0,85,0.00,,---,0.00,VWS V14.01,2013-11-26 08:53:00,
2013-11-26 02:54:00,59.4,54.9,25.04,SSW,206,0.0,0.0,85,0.00,,---,0.00,VWS V14.01,2013-11-26 08:54:00,
2013-11-26 02:55:00,59.4,54.9,25.04,SSW,206,0.0,0.0,85,0.00,,---,0.00,VWS V14.01,2013-11-26 08:55:00,
2013-11-26 02:56:00,59.4,54.9,25.04,SSW,206,0.0,0.0,85,0.00,,---,0.00,VWS V14.01,2013-11-26 08:56:00,
2013-11-26 02:57:00,59.4,54.9,25.04,SSW,206,0.0,0.0,85,0.00,,---,0.00,VWS V14.01,2013-11-26 08:57:00,
2013-11-26 02:58:00,59.4,54.9,25.04,SSW,206,0.0,0.0,85,0.00,,---,0.00,VWS V14.01,2013-11-26 08:58:00,
2013-11-26 02:59:00,59.4,54.9,25.04,SSW,206,0.0,0.0,85,0.00,,---,0.00,VWS V14.01,2013-11-26 08:59:00,
2013-11-26 03:00:00,59.4,54.9,25.04,SSW,206,0.0,0.0,85,0.00,,---,0.00,VWS V14.01,2013-11-26 09:00:00,
2013-11-26 03:01:00,59.4,54.9,25.04,SSW,206,0.0,0.0,85,0.00,,---,0.00,VWS V14.01,2013-11-26 09:01:00,
2013-11-26 03:02:00,58.8,54.3,25.04,SSW,206,0.0,0.0,85,0.00,,---,0.00,VWS V14.01,2013-11-26 09:02:00,
2013-11-26 03:03:00,58.8,54.3,25.04,SSW,206,3.1,3.1,85,0.00,,---,0.00,VWS V14.01,2013-11-26 09:03:00,
2013-11-26 03:04:00,58.8,54.3,25.04,SSW,206,0.0,3.1,85,0.00,,---,0.00,VWS V14.01,2013-11-26 09:04:00,
2013-11-26 03:05:00,58.8,54.3,25.04,SSW,206,0.0,0.0,85,0.00,,---,0.00,VWS V14.01,2013-11-26 09:05:00,
2013-11-26 03:06:00,58.8,54.7,25.04,SSW,206,0.0,0.0,86,0.00,,---,0.00,VWS V14.01,2013-11-26 09:06:00,
2013-11-26 03:07:00,58.8,54.7,25.04,SSW,206,0.0,0.0,86,0.00,,---,0.00,VWS V14.01,2013-11-26 09:07:00,
2013-11-26 03:08:00,58.8,54.7,25.04,SSW,206,0.0,0.0,86,0.00,,---,0.00,VWS V14.01,2013-11-26 09:08:00,
2013-11-26 03:09:00,58.8,54.7,25.04,SSW,206,0.0,0.0,86,0.00,,---,0.00,VWS V14.01,2013-11-26 09:09:00,
2013-11-26 03:10:00,58.8,54.7,25.04,SSW,206,0.0,0.0,86,0.00,,---,0.00,VWS V14.01,2013-11-26 09:10:00,
2013-11-26 03:11:00,58.8,54.7,25.04,SSW,206,0.0,0.0,86,0.00,,---,0.00,VWS V14.01,2013-11-26 09:11:00,
2013-11-26 03:12:00,58.8,54.7,25.04,SSW,206,0.0,0.0,86,0.00,,---,0.00,VWS V14.01,2013-11-26 09:12:00,
2013-11-26 03:13:00,58.8,54.7,25.04,SSW,209,0.0,0.0,86,0.00,,---,0.00,VWS V14.01,2013-11-26 09:13:00,
2013-11-26 03:14:00,58.8,54.7,25.04,SSW,209,0.0,0.0,86,0.00,,---,0.00,VWS V14.01,2013-11-26 09:14:00,
2013-11-26 03:15:00,58.8,54.7,25.04,SSW,209,0.0,0.0,86,0.00,,---,0.00,VWS V14.01,2013-11-26 09:15:00,
2013-11-26 03:16:00,58.8,54.7,25.04,SE,132,0.0,0.0,86,0.00,,---,0.00,VWS V14.01,2013-11-26 09:16:00,
2013-11-26 03:17:00,58.8,54.7,25.04,SE,132,0.0,0.0,86,0.00,,---,0.00,VWS V14.01,2013-11-26 09:17:00,